Date,TemperatureHighF,TemperatureAvgF,TemperatureLowF,DewpointHighF,DewpointAvgF,DewpointLowF,HumidityHigh,HumidityAvg,HumidityLow,PressureMaxIn,PressureMinIn,WindSpeedMaxMPH,WindSpeedAvgMPH,GustSpeedMaxMPH,PrecipitationSumIn
2014-1-1,41,30,20,31,20,15,81,67,44,30.26,29.92,10,1,10,0.00
2014-1-2,53,33,18,28,17,9,79,53,26,30.21,30.02,7,0,7,0.02
2014-1-3,66,47,36,26,18,15,46,34,19,30.02,29.71,6,0,6,0.00
2014-1-4,38,20,8,21,13,3,80,74,42,30.04,29.74,12,0,12,0.00
2014-1-5,20,8,-1,6,0,-7,80,69,54,30.26,29.99,7,0,7,0.00
2014-1-6,42,21,-1,16,7,-8,75,55,32,30.18,30.07,12,0,12,0.14
2014-1-7,47,36,31,22,17,14,61,46,34,30.07,29.94,7,0,7,0.00
2014-1-8,50,31,19,26,18,12,77,59,36,30.07,29.96,8,1,8,0.00
2014-1-9,55,37,23,22,16,12,74,44,26,29.96,29.72,7,0,7,0.00
2014-1-10,47,30,21,17,10,2,59,44,28,29.92,29.72,16,1,16,0.00
2014-1-11,64,43,26,29,20,12,57,41,26,29.99,29.74,9,2,9,0.00
2014-1-12,46,36,22,25,13,-17,56,39,30,29.99,29.67,13,2,13,0.00
2014-1-13,51,36,22,19,11,3,45,36,26,30.04,29.93,15,2,15,0.00
2014-1-14,37,28,20,24,16,11,76,63,38,30.33,30.03,60,1,60,0.04
2014-1-15,58,40,24,24,16,11,70,41,26,30.22,30.01,12,0,12,0.00
2014-1-16,50,35,25,20,12,7,59,41,25,30.25,30.09,13,1,13,0.00
2014-1-17,57,38,25,23,14,10,58,40,22,30.20,30.04,10,0,11,0.00
2014-1-18,60,40,28,22,13,9,45,35,21,30.20,30.09,10,1,10,0.00
2014-1-19,68,47,38,21,11,3,31,23,15,30.12,30.01,10,1,10,0.00
2014-1-20,51,38,31,21,13,5,48,37,26,30.31,30.01,10,1,10,0.00
2014-1-21,68,44,29,13,5,-4,43,22,10,30.29,30.09,12,1,12,0.00
2014-1-22,48,31,19,20,12,0,76,45,28,30.18,30.02,13,2,13,0.00
2014-1-23,30,18,4,18,8,-2,78,66,47,30.40,30.17,14,0,14,0.04
2014-1-24,63,40,25,20,11,1,50,31,19,30.24,30.13,6,0,6,0.00
2014-1-25,67,47,36,29,18,13,41,33,24,30.19,29.96,12,1,12,0.00
2014-1-26,64,38,16,24,15,6,69,42,20,30.12,29.82,14,2,14,0.00
2014-1-27,25,16,13,12,8,4,79,69,51,30.11,29.99,9,1,9,0.00
2014-1-28,41,20,4,14,4,-2,79,53,27,30.15,29.99,7,0,7,0.09
2014-1-29,60,40,25,28,15,2,48,37,24,29.99,29.56,12,2,12,0.02
2014-1-30,51,38,30,32,25,19,84,62,35,29.77,29.56,12,1,12,0.00
2014-1-31,34,22,15,25,15,10,83,77,60,29.84,29.70,0,0,0,0.00